When you browse on this site, cookies collect data to enhance your experience and personalize the content and advertising you see.
Visit our Privacy Policy to learn more. By continuing to use the site, you agree to this use of cookies and data.

Hourly Weather Prigorodnyy

Today, 22 September, Tuesday

Time Temperature Precipitation Wind Pressure Humidity
00:00 +10°C° 0 mm 4 mps 746 mmHg 88%
01:00 +8°C° 0 mm 4 mps 746 mmHg 90%
02:00 +9°C° 0 mm 3 mps 746 mmHg 94%
03:00 +9°C° 0 mm 3 mps 746 mmHg 94%
04:00 +8°C° 0 mm 4 mps 746 mmHg 95%
05:00 +8°C° 0 mm 4 mps 745 mmHg 95%
06:00 +9°C° 0 mm 5 mps 746 mmHg 92%
07:00 +10°C° 0 mm 5 mps 746 mmHg 88%
08:00 +11°C° 0 mm 6 mps 746 mmHg 82%
09:00 +14°C° 0 mm 6 mps 746 mmHg 76%
10:00 +16°C° 0 mm 6 mps 746 mmHg 69%
11:00 +17°C° 0 mm 7 mps 745 mmHg 62%
12:00 +18°C° 0 mm 7 mps 745 mmHg 60%
13:00 +18°C° 0 mm 7 mps 745 mmHg 58%
14:00 +20°C° 0 mm 7 mps 745 mmHg 56%
15:00 +19°C° 0 mm 6 mps 745 mmHg 60%
16:00 +17°C° 0 mm 5 mps 745 mmHg 64%
17:00 +16°C° 0 mm 5 mps 744 mmHg 69%
18:00 +15°C° 0 mm 5 mps 745 mmHg 73%
19:00 +14°C° 0 mm 4 mps 745 mmHg 76%
20:00 +13°C° 0 mm 4 mps 745 mmHg 80%
21:00 +12°C° 0 mm 4 mps 745 mmHg 82%
22:00 +12°C° 0 mm 4 mps 745 mmHg 85%
23:00 +11°C° 0 mm 4 mps 745 mmHg 88%

Tomorrow, 23 September, Wednesday

Time Temperature Precipitation Wind Pressure Humidity
00:00 +11°C° 0 mm 3 mps 745 mmHg 88%
01:00 +10°C° 0 mm 3 mps 745 mmHg 89%
02:00 +10°C° 0 mm 3 mps 745 mmHg 90%
03:00 +10°C° 0 mm 3 mps 745 mmHg 90%
04:00 +10°C° 0 mm 3 mps 745 mmHg 91%
05:00 +9°C° 0 mm 3 mps 745 mmHg 91%
06:00 +11°C° 0 mm 3 mps 746 mmHg 86%
07:00 +12°C° 0 mm 3 mps 746 mmHg 80%
08:00 +13°C° 0 mm 3 mps 746 mmHg 75%
09:00 +16°C° 0 mm 3 mps 746 mmHg 70%
10:00 +18°C° 0 mm 3 mps 746 mmHg 64%
11:00 +19°C° 0 mm 3 mps 746 mmHg 59%
12:00 +20°C° 0 mm 3 mps 746 mmHg 58%
13:00 +20°C° 0 mm 3 mps 746 mmHg 58%
14:00 +21°C° 0 mm 3 mps 746 mmHg 57%
15:00 +20°C° 0 mm 2 mps 745 mmHg 62%
16:00 +19°C° 0 mm 2 mps 745 mmHg 67%
17:00 +18°C° 0 mm 2 mps 745 mmHg 71%
18:00 +17°C° 0 mm 2 mps 745 mmHg 72%
19:00 +16°C° 0 mm 2 mps 745 mmHg 74%
20:00 +15°C° 0 mm 2 mps 745 mmHg 75%
21:00 +15°C° 0 mm 2 mps 745 mmHg 74%
22:00 +14°C° 0 mm 2 mps 745 mmHg 74%
23:00 +14°C° 0 mm 2 mps 745 mmHg 74%

Day after tomorrow, 24 September, Thursday

Time Temperature Precipitation Wind Pressure Humidity
00:00 +14°C° 0 mm 2 mps 746 mmHg 74%
01:00 +13°C° 0 mm 1 mps 746 mmHg 74%
02:00 +13°C° 0 mm 1 mps 746 mmHg 74%
03:00 +13°C° 0 mm 1 mps 746 mmHg 74%
04:00 +12°C° 0 mm 1 mps 746 mmHg 73%
05:00 +12°C° 0 mm 1 mps 746 mmHg 73%
06:00 +13°C° 0 mm 2 mps 746 mmHg 70%
07:00 +15°C° 0 mm 2 mps 746 mmHg 68%
08:00 +16°C° 0 mm 2 mps 746 mmHg 65%
09:00 +18°C° 0 mm 2 mps 746 mmHg 60%
10:00 +19°C° 0 mm 2 mps 746 mmHg 55%
11:00 +21°C° 0 mm 2 mps 746 mmHg 50%
12:00 +21°C° 0 mm 2 mps 746 mmHg 48%
13:00 +23°C° 0 mm 2 mps 746 mmHg 46%
14:00 +23°C° 0 mm 2 mps 746 mmHg 44%
15:00 +21°C° 0 mm 2 mps 746 mmHg 49%
16:00 +19°C° 0 mm 2 mps 746 mmHg 54%
17:00 +19°C° 0 mm 1 mps 746 mmHg 58%
18:00 +17°C° 0 mm 2 mps 746 mmHg 60%
19:00 +16°C° 0 mm 2 mps 746 mmHg 62%
20:00 +15°C° 0 mm 2 mps 746 mmHg 63%
21:00 +15°C° 0 mm 2 mps 746 mmHg 65%
22:00 +14°C° 0 mm 2 mps 746 mmHg 66%
23:00 +14°C° 0 mm 2 mps 746 mmHg 67%

25 September, Friday

Time Temperature Precipitation Wind Pressure Humidity
00:00 +14°C° 0 mm 2 mps 746 mmHg 68%
01:00 +13°C° 0 mm 2 mps 746 mmHg 68%
02:00 +13°C° 0 mm 2 mps 746 mmHg 69%
03:00 +13°C° 0 mm 2 mps 746 mmHg 70%
04:00 +12°C° 0 mm 2 mps 746 mmHg 71%
05:00 +12°C° 0 mm 2 mps 746 mmHg 72%
06:00 +13°C° 0 mm 2 mps 746 mmHg 69%
07:00 +14°C° 0 mm 3 mps 746 mmHg 66%
08:00 +16°C° 0 mm 3 mps 746 mmHg 63%
09:00 +17°C° 0 mm 3 mps 746 mmHg 59%
10:00 +19°C° 0 mm 3 mps 746 mmHg 55%
11:00 +21°C° 0 mm 3 mps 746 mmHg 51%
12:00 +21°C° 0 mm 4 mps 746 mmHg 49%
13:00 +22°C° 0 mm 4 mps 746 mmHg 47%
14:00 +23°C° 0 mm 4 mps 746 mmHg 45%
15:00 +21°C° 0 mm 4 mps 746 mmHg 50%
16:00 +20°C° 0 mm 4 mps 745 mmHg 56%
17:00 +18°C° 0 mm 3 mps 745 mmHg 62%
18:00 +18°C° 0 mm 3 mps 745 mmHg 63%
19:00 +17°C° 0 mm 4 mps 745 mmHg 64%
20:00 +15°C° 0 mm 4 mps 746 mmHg 65%
21:00 +15°C° 0 mm 4 mps 745 mmHg 65%
22:00 +14°C° 0 mm 4 mps 745 mmHg 66%
23:00 +14°C° 0 mm 4 mps 745 mmHg 66%

26 September, Saturday

Time Temperature Precipitation Wind Pressure Humidity
00:00 +14°C° 0 mm 4 mps 745 mmHg 67%
01:00 +13°C° 0 mm 4 mps 745 mmHg 68%
02:00 +13°C° 0 mm 4 mps 745 mmHg 69%
03:00 +12°C° 0 mm 4 mps 745 mmHg 69%
04:00 +12°C° 0 mm 4 mps 746 mmHg 69%
05:00 +12°C° 0 mm 4 mps 746 mmHg 68%
06:00 +13°C° 0 mm 4 mps 746 mmHg 64%
07:00 +14°C° 0 mm 5 mps 746 mmHg 59%
08:00 +14°C° 0 mm 5 mps 746 mmHg 55%
09:00 +16°C° 0 mm 5 mps 746 mmHg 51%
10:00 +19°C° 0 mm 6 mps 746 mmHg 48%
11:00 +20°C° 0 mm 6 mps 746 mmHg 44%
12:00 +21°C° 0 mm 6 mps 746 mmHg 45%
13:00 +21°C° 0 mm 6 mps 746 mmHg 45%
14:00 +21°C° 0 mm 6 mps 746 mmHg 45%
15:00 +20°C° 0 mm 6 mps 746 mmHg 49%
16:00 +19°C° 0 mm 5 mps 746 mmHg 53%
17:00 +17°C° 0 mm 5 mps 745 mmHg 57%
18:00 +16°C° 0 mm 5 mps 746 mmHg 57%
19:00 +16°C° 0 mm 5 mps 746 mmHg 57%
20:00 +16°C° 0 mm 5 mps 746 mmHg 56%
21:00 +15°C° 0 mm 5 mps 746 mmHg 56%
22:00 +15°C° 0 mm 5 mps 746 mmHg 55%
23:00 +15°C° 0 mm 5 mps 746 mmHg 54%

27 September, Sunday

Time Temperature Precipitation Wind Pressure Humidity
00:00 +14°C° 0 mm 5 mps 746 mmHg 53%
01:00 +14°C° 0 mm 5 mps 746 mmHg 51%
02:00 +14°C° 0 mm 5 mps 747 mmHg 50%
03:00 +13°C° 0 mm 5 mps 747 mmHg 49%
04:00 +13°C° 0 mm 5 mps 747 mmHg 48%
05:00 +12°C° 0 mm 5 mps 747 mmHg 47%
06:00 +13°C° 0 mm 6 mps 747 mmHg 48%
07:00 +13°C° 0 mm 6 mps 747 mmHg 48%
08:00 +14°C° 0 mm 6 mps 747 mmHg 48%
09:00 +15°C° 0 mm 7 mps 747 mmHg 46%
10:00 +16°C° 0 mm 7 mps 747 mmHg 43%
11:00 +17°C° 0 mm 8 mps 747 mmHg 40%
12:00 +18°C° 0 mm 8 mps 747 mmHg 40%
13:00 +18°C° 0 mm 8 mps 747 mmHg 40%
14:00 +18°C° 0 mm 8 mps 747 mmHg 40%
15:00 +18°C° 0 mm 7 mps 746 mmHg 42%
16:00 +17°C° 0 mm 6 mps 746 mmHg 44%
17:00 +16°C° 0 mm 6 mps 746 mmHg 46%
18:00 +16°C° 0 mm 6 mps 746 mmHg 44%
19:00 +16°C° 0 mm 7 mps 746 mmHg 41%
20:00 +17°C° 0 mm 7 mps 746 mmHg 38%
21:00 +16°C° 0 mm 7 mps 746 mmHg 38%
22:00 +16°C° 0 mm 7 mps 746 mmHg 37%
23:00 +16°C° 0 mm 7 mps 746 mmHg 37%
Show more